[[{"header":{"parameterUnit":"m.s-1","parameterCategory":2,"la1":30.2991,"la2":30.254,"lo1":-89.0895,"lo2":-89.0444,"dy":0.0017,"dx":0.0017,"nx":28,"ny":28,"refTime":"2024-02-19T09:00:00:Z","depth":"0","parameterNumber":2,"parameterNumberName":"U-component_of_CURRENTS"},"data":[0,0,0,0,0,0,0,0,0,0,0,0,0,0,0,0,0,0,0,0,0,0,0,0,0,0,0,0,0,0,0,0,0,0,0,0,0,0,0,0,0,0,0,0,0,0,0,0,0,0,0,0,0,0,0,0,0,0,0.2482,0.2483,0,0.2542,0.2542,0.2543,0.255,0.255,0.255,0.2549,0.2551,0.2551,0.2552,0,0,0,0,0,0,0,0,0,0,0,0,0,0.2383,0.2384,0.2482,0.2483,0.2484,0.2542,0.2542,0.2543,0.255,0.255,0.2549,0.2549,0.2551,0.2551,0.2552,0,0,0,0,0,0,0,0,0,0,0,0,0,0.243,0.2385,0.2482,0.2497,0.2499,0.2541,0.2542,0.2543,0.255,0.255,0.2549,0.2549,0.2551,0.2551,0.2552,0.2565,0,0,0.2553,0.2554,0,0,0,0,0,0,0,0,0.2427,0.2433,0.2494,0.2496,0.2499,0.254,0.2508,0.2548,0.255,0.2528,0.2549,0.2549,0.2544,0.2545,0.2554,0.2565,0.2565,0.2553,0.2554,0.2554,0.2554,0,0,0,0,0,0,0,0.2424,0.2431,0.2503,0.2495,0.2498,0.2503,0.2509,0.2515,0.2535,0.253,0.2531,0.2542,0.2545,0.2554,0.2554,0.2565,0.2553,0.2554,0.2554,0.2554,0.2623,0.2625,0,0,0,0,0,0,0.2422,0.2428,0.2501,0.2505,0.2464,0.2506,0.2512,0.2525,0.2536,0.2539,0.2543,0.2543,0.2553,0.2554,0.2554,0.2597,0.2554,0.2554,0.2555,0.2622,0.2624,0.2625,0,0,0,0,0,0,0.242,0.2428,0.2499,0.2469,0.2479,0.2508,0.2523,0.2527,0.2539,0.2547,0.2548,0.2551,0.2553,0.2554,0.2575,0.2596,0.2555,0.2555,0.262,0.2622,0.2624,0.2664,0,0,0,0,0,0,0.2417,0.2427,0.2435,0.247,0.2481,0.2531,0.2524,0.2528,0.2548,0.2548,0.2555,0.2554,0.2553,0.2574,0.2575,0.2596,0.2556,0.2618,0.2621,0.2624,0.2661,0.2668,0.2673,0,0,0,0,0,0.2413,0.2426,0.2435,0.2444,0.2491,0.2532,0.2538,0.2554,0.2549,0.2561,0.257,0.2554,0.2593,0.2576,0.2577,0.2598,0.2617,0.262,0.2624,0.2658,0.2666,0.2673,0,0,0,0,0,0,0.2382,0.243,0.244,0.2466,0.25,0.2534,0.2548,0.2558,0.2575,0.2573,0.2571,0.2573,0.2603,0.2597,0.2578,0.2628,0.2603,0.2607,0.2629,0.2637,0.2643,0.2655,0.2556,0,0,0,0,0,0.2381,0.2406,0.245,0.247,0.2489,0.2518,0.2535,0.255,0.2572,0.2579,0.2585,0.2596,0.2619,0.2623,0.264,0.2661,0.2676,0.2677,0.2683,0.2689,0.2701,0.2747,0.2758,0.2637,0.2636,0.2636,0,0,0.2372,0.2405,0.2416,0.2466,0.2492,0.2527,0.2527,0.2559,0.2588,0.2576,0.2608,0.2618,0.2631,0.2664,0.2676,0.2659,0.2732,0.2693,0.2697,0.2707,0.2751,0.2763,0.2774,0.2639,0.2638,0.2638,0,0,0.2373,0.24,0.2423,0.2459,0.2508,0.2532,0.2542,0.2582,0.26,0.2634,0.2641,0.2667,0.2686,0.2709,0.2721,0.2771,0.2767,0.2771,0.2806,0.285,0.286,0.2869,0.2906,0.2918,0.2769,0.2769,0.2769,0,0.2358,0.2401,0.2434,0.2473,0.2505,0.2535,0.2569,0.2598,0.2639,0.2661,0.2648,0.2708,0.2713,0.2768,0.2788,0.2785,0.2806,0.2773,0.2857,0.2867,0.2875,0.2911,0.2924,0.2771,0.2771,0.2771,0.277,0,0.2385,0.242,0.244,0.25,0.2535,0.2573,0.2622,0.2653,0.2671,0.2701,0.2755,0.2772,0.2808,0.2815,0.2816,0.2885,0.2879,0.2863,0.2836,0.289,0.2924,0.2936,0.2774,0.2774,0.2773,0.2772,0,0,0.2344,0.2439,0.2445,0.248,0.2557,0.2587,0.2643,0.2704,0.2742,0.2777,0.2829,0.2872,0.2882,0.2898,0.2905,0.2941,0.302,0.293,0.2931,0.2963,0.312,0.3137,0.3152,0.3017,0.3019,0.3021,0.3119,0,0.2354,0.2424,0.2472,0.2533,0.2574,0.263,0.2682,0.2741,0.2783,0.284,0.2878,0.2927,0.2915,0.2934,0.2974,0.3013,0.3055,0.2995,0.3067,0.3069,0.3074,0.3168,0.3129,0.3216,0.3131,0.3133,0.3135,0,0.2363,0.2414,0.2473,0.2564,0.2586,0.2623,0.271,0.2762,0.2852,0.2889,0.2947,0.2978,0.3053,0.3024,0.3125,0.3088,0.3115,0.3135,0.3139,0.3152,0.3111,0.3149,0.3242,0.3184,0.3154,0.3153,0.3151,0,0.232,0.2413,0.2457,0.249,0.2593,0.2625,0.2679,0.2769,0.2821,0.2921,0.2972,0.3051,0.3105,0.3152,0.3209,0.3173,0.3317,0.3265,0.3305,0.3305,0.3287,0.3282,0.3331,0.3341,0.3341,0.334,0.334,0,0.2314,0.2349,0.2437,0.2463,0.2514,0.26,0.2658,0.2726,0.2831,0.2897,0.299,0.3064,0.3143,0.3231,0.3251,0.3341,0.3355,0.3345,0.3347,0.33,0.3296,0.3254,0.3202,0.3344,0.3343,0.3342,0.3342,0,0.2255,0.2317,0.2368,0.2466,0.2491,0.2525,0.2632,0.2689,0.2798,0.289,0.2929,0.3097,0.3229,0.3308,0.3407,0.341,0.3401,0.3493,0.3435,0.343,0.3391,0.3341,0.3256,0.3152,0.355,0.3551,0.3552,0,0.2231,0.225,0.2337,0.2361,0.24,0.2463,0.2516,0.2642,0.2714,0.2903,0.2957,0.3134,0.326,0.3447,0.351,0.359,0.3457,0.3568,0.3492,0.3421,0.3367,0.3191,0.3095,0.348,0.348,0.3481,0.3481,0,0.2175,0.22,0.2239,0.2288,0.2336,0.2395,0.2486,0.2527,0.2685,0.2798,0.2966,0.3087,0.333,0.3443,0.3578,0.3605,0.3427,0.3576,0.3522,0.3351,0.3144,0.3034,0.3373,0.3483,0.3483,0.3483,0.3483,0.3483,0.2113,0.2119,0.2164,0.2206,0.2258,0.2306,0.2322,0.2445,0.2545,0.2689,0.2879,0.3053,0.3318,0.3537,0.3541,0.3569,0.3458,0.3498,0.3456,0.3292,0.3155,0.3507,0.3605,0.3605,0.3606,0.3606,0.3606,0,0.2032,0.2053,0.2087,0.2123,0.2142,0.2209,0.2287,0.2301,0.238,0.2599,0.2754,0.3049,0.3225,0.3396,0.3566,0.3484,0.3279,0.3387,0.3135,0.3052,0.3415,0.3379,0.341,0.341,0.341,0.341,0.341,0.341,0.1986,0.1983,0.2008,0.1996,0.2023,0.2013,0.2033,0.2084,0.222,0.2407,0.2604,0.2799,0.3184,0.3462,0.3492,0.341,0.312,0.3016,0.292,0.3215,0.322,0.3226,0.3181,0.317,0.3169,0.2463,0.2458,0.2454]},{"header":{"parameterUnit":"m.s-1","parameterCategory":2,"la1":30.2991,"la2":30.254,"lo1":-89.0895,"lo2":-89.0444,"dy":0.0017,"dx":0.0017,"nx":28,"ny":28,"refTime":"2024-02-19T09:00:00:Z","depth":"0","parameterNumber":3,"parameterNumberName":"V-component_of_CURRENTS"},"data":[0,0,0,0,0,0,0,0,0,0,0,0,0,0,0,0,0,0,0,0,0,0,0,0,0,0,0,0,0,0,0,0,0,0,0,0,0,0,0,0,0,0,0,0,0,0,0,0,0,0,0,0,0,0,0,0,0,0,-0.0363,-0.0364,0,-0.0434,-0.0435,-0.0436,-0.0489,-0.049,-0.049,-0.0491,-0.0554,-0.0555,-0.0556,0,0,0,0,0,0,0,0,0,0,0,0,0,-0.0313,-0.0314,-0.0363,-0.0364,-0.0364,-0.0434,-0.0435,-0.0436,-0.0489,-0.049,-0.049,-0.0491,-0.0553,-0.0555,-0.0556,0,0,0,0,0,0,0,0,0,0,0,0,0,-0.0356,-0.0314,-0.0363,-0.0399,-0.0402,-0.0434,-0.0435,-0.0437,-0.0489,-0.049,-0.049,-0.0491,-0.0553,-0.0555,-0.0557,-0.0557,0,0,-0.0563,-0.0564,0,0,0,0,0,0,0,0,-0.0353,-0.0357,-0.0393,-0.0396,-0.0401,-0.0453,-0.0441,-0.0476,-0.0489,-0.0457,-0.0491,-0.0491,-0.0518,-0.0523,-0.0537,-0.056,-0.0563,-0.0563,-0.0564,-0.0565,-0.0566,0,0,0,0,0,0,0,-0.035,-0.0355,-0.0392,-0.0393,-0.0398,-0.0425,-0.0432,-0.0448,-0.0484,-0.046,-0.0464,-0.047,-0.0521,-0.0535,-0.0538,-0.0564,-0.0563,-0.0565,-0.0566,-0.0567,-0.0609,-0.0609,0,0,0,0,0,0,-0.0337,-0.0352,-0.039,-0.0394,-0.0377,-0.0425,-0.0433,-0.0436,-0.0484,-0.0492,-0.047,-0.0472,-0.0531,-0.0536,-0.0541,-0.054,-0.0565,-0.0567,-0.0568,-0.0609,-0.0609,-0.0609,0,0,0,0,0,0,-0.0335,-0.0339,-0.0387,-0.0374,-0.0382,-0.0425,-0.0429,-0.0437,-0.0449,-0.0491,-0.0499,-0.0473,-0.0532,-0.0538,-0.0554,-0.0543,-0.0568,-0.057,-0.0609,-0.0609,-0.0609,-0.0541,0,0,0,0,0,0,-0.0333,-0.0338,-0.0333,-0.0373,-0.0382,-0.0395,-0.0429,-0.0438,-0.0452,-0.0456,-0.0497,-0.0504,-0.0533,-0.0551,-0.0556,-0.0546,-0.0571,-0.0609,-0.0609,-0.0609,-0.0543,-0.0539,-0.0535,0,0,0,0,0,-0.0331,-0.0318,-0.0332,-0.0337,-0.0375,-0.0394,-0.0401,-0.0435,-0.0451,-0.045,-0.0481,-0.0502,-0.0554,-0.0552,-0.0558,-0.0549,-0.0609,-0.0609,-0.0609,-0.0545,-0.054,-0.0535,0,0,0,0,0,0,-0.0289,-0.0323,-0.034,-0.0336,-0.036,-0.0403,-0.0403,-0.0427,-0.0452,-0.0454,-0.0497,-0.0506,-0.0518,-0.0543,-0.054,-0.0563,-0.0586,-0.0587,-0.0536,-0.0531,-0.0527,-0.0506,-0.0573,0,0,0,0,0,-0.0277,-0.0279,-0.0315,-0.0311,-0.032,-0.036,-0.0371,-0.0393,-0.0422,-0.0434,-0.0465,-0.0497,-0.0523,-0.0533,-0.056,-0.0565,-0.059,-0.0566,-0.0562,-0.0558,-0.0547,-0.0587,-0.0585,-0.0608,-0.0608,-0.0608,0,0,-0.026,-0.0278,-0.028,-0.0303,-0.0324,-0.0324,-0.0368,-0.0377,-0.0379,-0.0435,-0.0444,-0.048,-0.0522,-0.0534,-0.0542,-0.0552,-0.0562,-0.0558,-0.0554,-0.0545,-0.0587,-0.0584,-0.0582,-0.0608,-0.0608,-0.0608,0,0,-0.0221,-0.0241,-0.0228,-0.0244,-0.0268,-0.0292,-0.029,-0.0329,-0.0347,-0.0362,-0.0405,-0.0436,-0.0469,-0.0502,-0.0521,-0.0508,-0.0539,-0.0515,-0.0472,-0.0511,-0.051,-0.0508,-0.0524,-0.0524,-0.0511,-0.0511,-0.0511,0,-0.0197,-0.0189,-0.0226,-0.0218,-0.0222,-0.0272,-0.0255,-0.028,-0.0319,-0.0328,-0.0354,-0.0415,-0.0456,-0.0473,-0.0475,-0.0497,-0.0514,-0.0486,-0.0504,-0.0504,-0.0504,-0.052,-0.0521,-0.0508,-0.0508,-0.0508,-0.0509,0,-0.0153,-0.0146,-0.0137,-0.0145,-0.0153,-0.0148,-0.0185,-0.0195,-0.0225,-0.0255,-0.0282,-0.0345,-0.038,-0.0403,-0.0435,-0.045,-0.046,-0.0494,-0.0513,-0.0497,-0.0515,-0.0518,-0.0503,-0.0504,-0.0505,-0.0506,0,0,-0.0098,-0.0104,-0.0101,-0.0087,-0.0114,-0.0111,-0.0114,-0.0128,-0.0121,-0.0177,-0.0175,-0.0245,-0.0285,-0.031,-0.036,-0.0398,-0.0419,-0.0437,-0.0441,-0.0442,-0.0483,-0.0483,-0.0487,-0.0454,-0.0454,-0.0455,-0.0491,0,-0.005,-0.0014,-0.0034,0.0005,0.0022,-0.0018,-0.0013,-0.0035,-0.0066,-0.0078,-0.0154,-0.0176,-0.0247,-0.0262,-0.0312,-0.039,-0.0425,-0.0405,-0.0507,-0.0509,-0.0504,-0.049,-0.0473,-0.0504,-0.0494,-0.0494,-0.0495,0,0.0001,0.0019,0.0065,0.0084,0.0089,0.0101,0.0106,0.0105,0.0066,0.0037,-0.0007,-0.0063,-0.0123,-0.019,-0.0311,-0.0291,-0.0377,-0.0445,-0.0449,-0.0473,-0.0515,-0.0523,-0.051,-0.0697,-0.05,-0.0499,-0.0499,0,0.0061,0.0091,0.0134,0.0138,0.0148,0.0163,0.0165,0.0141,0.016,0.0113,0.0117,0.0027,-0.0002,-0.0128,-0.0268,-0.0289,-0.0396,-0.0448,-0.0526,-0.0527,-0.0544,-0.0545,-0.0716,-0.0533,-0.0533,-0.0533,-0.0533,0,0.012,0.0157,0.0167,0.0191,0.0248,0.0227,0.0275,0.0259,0.0259,0.0297,0.0185,0.02,0.0012,-0.0071,-0.0222,-0.0367,-0.0364,-0.0507,-0.0537,-0.0519,-0.0518,-0.0708,-0.0816,-0.0535,-0.0534,-0.0534,-0.0534,0,0.018,0.0185,0.0241,0.0266,0.0279,0.0318,0.0358,0.0398,0.0372,0.0421,0.0416,0.0342,0.0231,0.0046,-0.0143,-0.0287,-0.0544,-0.0499,-0.045,-0.0473,-0.0729,-0.0832,-0.1018,-0.1096,-0.0591,-0.0592,-0.0592,0,0.0213,0.0249,0.0301,0.0344,0.036,0.0409,0.0451,0.0452,0.0505,0.0519,0.0566,0.0482,0.0452,0.0179,-0.01,-0.0351,-0.0541,-0.051,-0.0563,-0.0732,-0.087,-0.0947,-0.1004,-0.0556,-0.0556,-0.0556,-0.0556,0,0.0283,0.0301,0.0347,0.0432,0.049,0.0558,0.0621,0.0685,0.0704,0.0749,0.0816,0.0802,0.0543,0.0314,-0.0046,-0.0246,-0.0641,-0.0516,-0.0717,-0.0872,-0.0942,-0.1033,-0.0532,-0.0555,-0.0555,-0.0555,-0.0555,-0.0555,0.0337,0.0384,0.0447,0.0532,0.0605,0.0707,0.0781,0.0866,0.0972,0.1074,0.1039,0.1067,0.0697,0.0217,-0.009,-0.0632,-0.0648,-0.0796,-0.0909,-0.097,-0.1052,-0.0533,-0.0578,-0.0578,-0.0578,-0.0579,-0.0579,0,0.0405,0.0458,0.0544,0.0647,0.0749,0.0767,0.0903,0.0995,0.1143,0.1249,0.1317,0.1189,0.0714,0.0207,-0.0516,-0.0931,-0.1097,-0.1174,-0.13,-0.1341,-0.09,-0.0906,-0.0993,-0.0993,-0.0993,-0.0992,-0.0992,-0.0992,0.0444,0.0537,0.0581,0.0755,0.0834,0.0976,0.1062,0.1205,0.132,0.1482,0.1541,0.1544,0.1174,-0.0162,-0.1113,-0.1355,-0.1637,-0.171,-0.1858,-0.1588,-0.1561,-0.1537,-0.1569,-0.1794,-0.1795,-0.2238,-0.2243,-0.2246]}],[{"header":{"parameterUnit":"m.s-1","parameterCategory":2,"la1":30.2991,"la2":30.254,"lo1":-89.0895,"lo2":-89.0444,"dy":0.0017,"dx":0.0017,"nx":28,"ny":28,"refTime":"2024-02-19T09:00:00:Z","depth":"2","parameterNumber":2,"parameterNumberName":"U-component_of_CURRENTS"},"data":[0,0,0,0,0,0,0,0,0,0,0,0,0,0,0,0,0,0,0,0,0,0,0,0,0,0,0,0,0,0,0,0,0,0,0,0,0,0,0,0,0,0,0,0,0,0,0,0,0,0,0,0,0,0,0,0,0,0,0.223,0.2231,0,0.2293,0.2294,0.2294,0.2312,0.2312,0.2312,0.2312,0.2331,0.2331,0.2332,0,0,0,0,0,0,0,0,0,0,0,0,0,0.2134,0.2136,0.223,0.2231,0.2232,0.2293,0.2294,0.2294,0.2312,0.2312,0.2312,0.2312,0.2331,0.2331,0.2332,0,0,0,0,0,0,0,0,0,0,0,0,0,0.2182,0.2136,0.223,0.225,0.2252,0.2293,0.2294,0.2295,0.2312,0.2312,0.2312,0.2311,0.233,0.2331,0.2332,0.2343,0,0,0.2335,0.2336,0,0,0,0,0,0,0,0,0.218,0.2186,0.2246,0.2249,0.2252,0.2296,0.2267,0.2309,0.2312,0.2287,0.2312,0.2311,0.2317,0.2319,0.2329,0.2344,0.2345,0.2335,0.2336,0.2336,0.2337,0,0,0,0,0,0,0,0.2176,0.2183,0.2253,0.2247,0.2251,0.2259,0.2265,0.2275,0.23,0.2289,0.2291,0.2302,0.2318,0.2328,0.2329,0.2345,0.2335,0.2336,0.2337,0.2337,0.2414,0.2415,0,0,0,0,0,0,0.2173,0.218,0.2251,0.2255,0.2217,0.2261,0.2268,0.228,0.2301,0.2305,0.2302,0.2302,0.2326,0.2328,0.233,0.238,0.2336,0.2337,0.2338,0.2412,0.2414,0.2416,0,0,0,0,0,0,0.217,0.2179,0.2249,0.222,0.223,0.2263,0.2277,0.2282,0.23,0.2311,0.2314,0.2316,0.2326,0.2329,0.2355,0.2379,0.2338,0.2339,0.2411,0.2413,0.2415,0.2455,0,0,0,0,0,0,0.2167,0.2177,0.2187,0.222,0.2232,0.2281,0.2278,0.2283,0.2307,0.2309,0.2324,0.2325,0.2326,0.2354,0.2356,0.2379,0.2339,0.2409,0.2412,0.2414,0.2452,0.2459,0.2464,0,0,0,0,0,0.2164,0.2178,0.2187,0.2196,0.2243,0.2282,0.2288,0.2309,0.2308,0.2322,0.2336,0.2325,0.2372,0.2356,0.2358,0.2382,0.2407,0.2411,0.2414,0.245,0.2457,0.2464,0,0,0,0,0,0,0.2138,0.2182,0.2193,0.2219,0.2252,0.2286,0.2304,0.2314,0.2337,0.2339,0.2342,0.2345,0.238,0.2376,0.2358,0.2414,0.2389,0.2393,0.2415,0.2423,0.2429,0.2437,0.234,0,0,0,0,0,0.2139,0.2163,0.2203,0.2225,0.2243,0.2274,0.2292,0.2309,0.2333,0.2343,0.2354,0.237,0.2395,0.2404,0.2422,0.2448,0.2459,0.2467,0.2473,0.2478,0.2488,0.2527,0.2538,0.2426,0.2426,0.2426,0,0,0.2133,0.2163,0.2175,0.2222,0.2249,0.2281,0.2284,0.2319,0.2348,0.2341,0.2379,0.2392,0.2408,0.2444,0.2458,0.2443,0.2517,0.2482,0.2486,0.2493,0.2532,0.2543,0.2552,0.2428,0.2428,0.2428,0,0,0.2137,0.2165,0.2187,0.2221,0.2269,0.2292,0.2303,0.2344,0.2365,0.2401,0.2411,0.244,0.2466,0.249,0.2503,0.2552,0.255,0.2556,0.259,0.2628,0.2637,0.2646,0.2677,0.2688,0.2555,0.2555,0.2556,0,0.2127,0.2167,0.2199,0.2234,0.2265,0.2297,0.2329,0.2359,0.2402,0.2426,0.2418,0.2482,0.2491,0.2546,0.2567,0.2566,0.2585,0.2558,0.2636,0.2644,0.2652,0.2682,0.2693,0.2558,0.2558,0.2557,0.2557,0,0.2153,0.2187,0.2207,0.2262,0.2297,0.2334,0.2381,0.2413,0.2436,0.2466,0.2524,0.2544,0.2582,0.2592,0.2595,0.2661,0.2656,0.264,0.2615,0.2666,0.2694,0.2705,0.2561,0.256,0.256,0.2559,0,0,0.2119,0.2206,0.2213,0.2246,0.2318,0.2347,0.2403,0.2462,0.2501,0.254,0.2593,0.2639,0.2652,0.2669,0.2679,0.2713,0.2784,0.2704,0.2705,0.2731,0.2873,0.2862,0.2873,0.2783,0.2785,0.2787,0.2871,0,0.2129,0.2192,0.2237,0.2296,0.2333,0.2388,0.2439,0.2497,0.2542,0.26,0.264,0.2692,0.2682,0.2706,0.2741,0.278,0.2816,0.2763,0.2823,0.2825,0.2807,0.2887,0.2682,0.274,0.2882,0.2884,0.2885,0,0.2137,0.2183,0.2237,0.2323,0.2345,0.2382,0.2467,0.2519,0.2609,0.2649,0.2707,0.274,0.2814,0.2787,0.2879,0.2848,0.2869,0.2887,0.289,0.2875,0.2836,0.2712,0.2754,0.2903,0.2902,0.2901,0.2899,0,0.2096,0.2183,0.2224,0.2255,0.2351,0.2385,0.2439,0.2528,0.2582,0.2683,0.2735,0.2811,0.2865,0.2905,0.2955,0.2924,0.3049,0.3004,0.3013,0.3012,0.2847,0.2829,0.3067,0.3067,0.3067,0.3067,0.3066,0,0.2088,0.2122,0.2206,0.2229,0.2283,0.2363,0.2426,0.2495,0.2598,0.2666,0.2756,0.2823,0.29,0.2976,0.2993,0.3056,0.3082,0.3046,0.3045,0.2857,0.2839,0.2981,0.297,0.307,0.3069,0.3068,0.3068,0,0.2033,0.209,0.214,0.2233,0.2261,0.2298,0.2409,0.2463,0.2573,0.2667,0.2707,0.2856,0.297,0.304,0.3126,0.3115,0.3162,0.317,0.2949,0.2922,0.3084,0.3074,0.3187,0.3188,0.3188,0.3189,0.3189,0,0.2011,0.2029,0.2116,0.2141,0.218,0.2248,0.2301,0.2427,0.2494,0.2676,0.2725,0.2882,0.2977,0.3126,0.315,0.3204,0.3213,0.3022,0.2926,0.3114,0.3102,0.3091,0.3081,0.2718,0.2715,0.2712,0.271,0,0.196,0.1988,0.2025,0.2075,0.2125,0.2186,0.2276,0.2316,0.2471,0.2574,0.2715,0.2808,0.2986,0.2976,0.307,0.3056,0.2998,0.2967,0.323,0.273,0.2682,0.2667,0.267,0.2684,0.2686,0.2688,0.269,0.2691,0.1909,0.1916,0.1961,0.2004,0.2056,0.2101,0.2119,0.223,0.2321,0.2438,0.2599,0.2683,0.2776,0.2831,0.2785,0.2757,0.2942,0.2801,0.2805,0.2813,0.2755,0.2712,0.2707,0.271,0.2712,0.2714,0.2716,0,0.1839,0.1859,0.1892,0.193,0.1945,0.2013,0.2086,0.2089,0.2151,0.2307,0.2418,0.2321,0.2374,0.2448,0.2393,0.2431,0.2352,0.2318,0.2187,0.2218,0.2245,0.215,0.1946,0.1942,0.1939,0.1937,0,0,0.1799,0.1797,0.1817,0.1805,0.1834,0.1826,0.1842,0.1871,0.1957,0.1991,0.2043,0.2263,0.2404,0.213,0.2136,0.2026,0.2086,0.1954,0.2588,0.2466,0.2487,0.2563,0.246,0,0,0,0,0]},{"header":{"parameterUnit":"m.s-1","parameterCategory":2,"la1":30.2991,"la2":30.254,"lo1":-89.0895,"lo2":-89.0444,"dy":0.0017,"dx":0.0017,"nx":28,"ny":28,"refTime":"2024-02-19T09:00:00:Z","depth":"2","parameterNumber":3,"parameterNumberName":"V-component_of_CURRENTS"},"data":[0,0,0,0,0,0,0,0,0,0,0,0,0,0,0,0,0,0,0,0,0,0,0,0,0,0,0,0,0,0,0,0,0,0,0,0,0,0,0,0,0,0,0,0,0,0,0,0,0,0,0,0,0,0,0,0,0,0,-0.0106,-0.0107,0,-0.018,-0.0181,-0.0182,-0.0236,-0.0237,-0.0237,-0.0238,-0.0305,-0.0306,-0.0307,0,0,0,0,0,0,0,0,0,0,0,0,0,-0.0052,-0.0052,-0.0106,-0.0107,-0.0108,-0.018,-0.0181,-0.0182,-0.0236,-0.0237,-0.0237,-0.0238,-0.0304,-0.0306,-0.0307,0,0,0,0,0,0,0,0,0,0,0,0,0,-0.0096,-0.0053,-0.0106,-0.0143,-0.0147,-0.0179,-0.0181,-0.0182,-0.0236,-0.0237,-0.0237,-0.0238,-0.0304,-0.0306,-0.0308,-0.0308,0,0,-0.0314,-0.0315,0,0,0,0,0,0,0,0,-0.0093,-0.0098,-0.0137,-0.0141,-0.0145,-0.0199,-0.0186,-0.0224,-0.0236,-0.0203,-0.0238,-0.0238,-0.0268,-0.0273,-0.0286,-0.0311,-0.0314,-0.0314,-0.0315,-0.0316,-0.0317,0,0,0,0,0,0,0,-0.009,-0.0095,-0.0136,-0.0138,-0.0143,-0.0169,-0.0176,-0.0194,-0.0232,-0.0206,-0.021,-0.0217,-0.027,-0.0284,-0.0288,-0.0315,-0.0314,-0.0316,-0.0317,-0.0318,-0.0359,-0.0358,0,0,0,0,0,0,-0.0077,-0.0092,-0.0134,-0.0138,-0.012,-0.017,-0.0177,-0.0182,-0.0232,-0.024,-0.0216,-0.0219,-0.028,-0.0286,-0.0291,-0.0291,-0.0316,-0.0318,-0.032,-0.0359,-0.0359,-0.0358,0,0,0,0,0,0,-0.0075,-0.008,-0.0131,-0.0117,-0.0125,-0.017,-0.0174,-0.0183,-0.0197,-0.0239,-0.0247,-0.0222,-0.0281,-0.0288,-0.0306,-0.0294,-0.0319,-0.0321,-0.0359,-0.0359,-0.0358,-0.0294,0,0,0,0,0,0,-0.0074,-0.0079,-0.0076,-0.0115,-0.0125,-0.0142,-0.0174,-0.0184,-0.02,-0.0205,-0.0247,-0.0254,-0.0282,-0.0302,-0.0308,-0.0298,-0.0323,-0.0359,-0.0359,-0.0359,-0.0296,-0.0292,-0.0288,0,0,0,0,0,-0.0071,-0.0061,-0.0075,-0.008,-0.012,-0.0141,-0.0148,-0.0183,-0.02,-0.02,-0.0231,-0.0253,-0.0304,-0.0303,-0.031,-0.03,-0.0359,-0.0359,-0.0359,-0.0298,-0.0293,-0.0288,0,0,0,0,0,0,-0.0034,-0.0067,-0.0083,-0.0083,-0.0107,-0.015,-0.0152,-0.0177,-0.0203,-0.0206,-0.0248,-0.0257,-0.027,-0.0294,-0.0292,-0.0313,-0.0336,-0.0337,-0.0288,-0.0283,-0.0278,-0.0261,-0.0325,0,0,0,0,0,-0.0024,-0.0026,-0.0062,-0.0061,-0.007,-0.011,-0.0122,-0.0145,-0.0174,-0.0187,-0.0218,-0.0249,-0.0274,-0.0284,-0.031,-0.0316,-0.0343,-0.0316,-0.0311,-0.0307,-0.0299,-0.0335,-0.0332,-0.0357,-0.0357,-0.0357,0,0,-0.001,-0.0027,-0.0029,-0.0053,-0.0075,-0.0076,-0.0119,-0.013,-0.0133,-0.0188,-0.0199,-0.0234,-0.0273,-0.0284,-0.0292,-0.0302,-0.0314,-0.0307,-0.0303,-0.0296,-0.0334,-0.0332,-0.0329,-0.0357,-0.0357,-0.0357,0,0,0.0024,0.0004,0.0015,-0.0,-0.0025,-0.0048,-0.0047,-0.0086,-0.0105,-0.0121,-0.0162,-0.019,-0.0225,-0.0253,-0.0271,-0.0256,-0.0291,-0.0264,-0.0223,-0.0258,-0.0256,-0.0255,-0.0281,-0.0283,-0.0259,-0.0259,-0.0258,0,0.0044,0.0051,0.0016,0.0023,0.0019,-0.0029,-0.0015,-0.004,-0.008,-0.0089,-0.0115,-0.0174,-0.0211,-0.0225,-0.0225,-0.0245,-0.0267,-0.0238,-0.0251,-0.0251,-0.025,-0.0278,-0.028,-0.0255,-0.0256,-0.0256,-0.0256,0,0.0083,0.0089,0.0096,0.009,0.0081,0.0085,0.005,0.0039,0.0008,-0.0021,-0.0049,-0.0106,-0.0141,-0.0159,-0.0188,-0.02,-0.0217,-0.0242,-0.0261,-0.0244,-0.0274,-0.0278,-0.0251,-0.0252,-0.0253,-0.0254,0,0,0.0128,0.0126,0.0129,0.0142,0.0118,0.0119,0.0116,0.0102,0.0105,0.0051,0.0049,-0.0012,-0.0051,-0.0074,-0.0119,-0.0152,-0.0175,-0.0189,-0.0192,-0.0207,-0.0243,-0.0256,-0.0262,-0.0201,-0.0201,-0.0202,-0.0263,0,0.0172,0.0208,0.019,0.0226,0.0243,0.0205,0.0209,0.0187,0.0155,0.0139,0.0071,0.0048,-0.0015,-0.003,-0.0074,-0.0148,-0.0182,-0.0156,-0.0265,-0.0268,-0.0275,-0.0266,-0.0242,-0.0295,-0.0267,-0.0268,-0.0269,0,0.0218,0.0237,0.0279,0.03,0.0304,0.0313,0.0315,0.0313,0.0274,0.0244,0.02,0.0147,0.0091,0.0033,-0.0085,-0.0063,-0.0144,-0.0208,-0.0212,-0.0248,-0.0287,-0.0311,-0.0304,-0.0275,-0.0275,-0.0274,-0.0274,0,0.0271,0.0302,0.0341,0.0345,0.0356,0.0367,0.037,0.0345,0.036,0.0312,0.0312,0.0226,0.0193,0.0078,-0.0058,-0.007,-0.0186,-0.0224,-0.0311,-0.0313,-0.0327,-0.0329,-0.0305,-0.0305,-0.0305,-0.0304,-0.0304,0,0.0325,0.0357,0.0369,0.0391,0.0442,0.0425,0.0465,0.045,0.0446,0.0476,0.0373,0.0376,0.0203,0.0117,-0.0022,-0.0171,-0.0163,-0.0299,-0.0329,-0.0304,-0.0303,-0.0314,-0.0315,-0.0307,-0.0306,-0.0306,-0.0305,0,0.0376,0.0381,0.0432,0.0457,0.0468,0.0504,0.054,0.0573,0.0548,0.0585,0.0579,0.0496,0.0376,0.0202,0.002,-0.0113,-0.0263,-0.0319,-0.0272,-0.0296,-0.0377,-0.0373,-0.0424,-0.0425,-0.0426,-0.0427,-0.0427,0,0.0405,0.0436,0.0484,0.0521,0.0533,0.0579,0.0618,0.0621,0.0666,0.0665,0.07,0.0603,0.0552,0.0275,0.0021,-0.0221,-0.0256,-0.0359,-0.0387,-0.0364,-0.0389,-0.0384,-0.0379,-0.0382,-0.0382,-0.0382,-0.0382,0,0.0465,0.0477,0.0519,0.0595,0.0645,0.0709,0.0765,0.082,0.0836,0.0865,0.0898,0.0862,0.0598,0.036,0.0021,-0.0148,-0.0322,-0.0369,-0.0358,-0.0351,-0.0328,-0.0351,-0.0347,-0.0383,-0.0383,-0.0383,-0.0383,-0.0383,0.0506,0.0548,0.0602,0.0676,0.0742,0.0832,0.0897,0.0965,0.1049,0.1108,0.1063,0.1016,0.0728,0.0308,-0.0001,-0.0328,-0.0318,-0.043,-0.0428,-0.0426,-0.0406,-0.0386,-0.0447,-0.0447,-0.0448,-0.0448,-0.0448,0,0.0561,0.0607,0.0681,0.0772,0.0859,0.088,0.0997,0.1068,0.1176,0.1222,0.1243,0.0996,0.0708,0.0375,-0.0106,-0.0395,-0.0423,-0.0486,-0.0455,-0.0452,-0.0449,-0.043,-0.0478,-0.0479,-0.048,-0.048,0,0,0.0591,0.0669,0.0708,0.0855,0.0924,0.1046,0.1119,0.1222,0.1285,0.1337,0.1317,0.1244,0.0833,0.0488,0.0082,-0.0197,-0.0259,-0.0256,-0.0201,-0.0114,-0.0108,-0.0388,-0.035,0,0,0,0,0]}],[{"header":{"parameterUnit":"m.s-1","parameterCategory":2,"la1":30.2991,"la2":30.254,"lo1":-89.0895,"lo2":-89.0444,"dy":0.0017,"dx":0.0017,"nx":28,"ny":28,"refTime":"2024-02-19T09:00:00:Z","depth":"4","parameterNumber":2,"parameterNumberName":"U-component_of_CURRENTS"},"data":[0,0,0,0,0,0,0,0,0,0,0,0,0,0,0,0,0,0,0,0,0,0,0,0,0,0,0,0,0,0,0,0,0,0,0,0,0,0,0,0,0,0,0,0,0,0,0,0,0,0,0,0,0,0,0,0,0,0,0.1504,0.1505,0,0.1593,0.1594,0.1595,0.166,0.1661,0.1661,0.1662,0.1751,0.1752,0.1754,0,0,0,0,0,0,0,0,0,0,0,0,0,0.1392,0.1394,0.1504,0.1505,0.1506,0.1593,0.1594,0.1595,0.166,0.1661,0.1661,0.1662,0.175,0.1752,0.1754,0,0,0,0,0,0,0,0,0,0,0,0,0,0.1455,0.1394,0.1503,0.155,0.1555,0.1593,0.1594,0.1595,0.166,0.1661,0.1662,0.1663,0.1749,0.1752,0.1754,0.1749,0,0,0.1762,0.1763,0,0,0,0,0,0,0,0,0.1452,0.1459,0.1542,0.1547,0.1553,0.1618,0.1587,0.1647,0.1659,0.1618,0.1662,0.1663,0.1706,0.1713,0.1725,0.1753,0.1757,0.1762,0.1764,0.1765,0.1766,0,0,0,0,0,0,0,0.1447,0.1456,0.1537,0.1543,0.155,0.1568,0.1578,0.1599,0.1654,0.1622,0.1627,0.1639,0.1709,0.1722,0.1727,0.1758,0.1762,0.1765,0.1766,0.1767,0.1887,0.1888,0,0,0,0,0,0,0.1438,0.1452,0.1535,0.154,0.1506,0.1569,0.158,0.1595,0.1654,0.1665,0.1638,0.1642,0.1717,0.1724,0.1731,0.1819,0.1765,0.1767,0.1769,0.1885,0.1887,0.1889,0,0,0,0,0,0,0.1436,0.1445,0.1531,0.1499,0.1511,0.157,0.1586,0.1596,0.1642,0.1667,0.1677,0.1678,0.1718,0.1727,0.1782,0.182,0.1769,0.1771,0.1883,0.1886,0.1888,0.1937,0,0,0,0,0,0,0.1432,0.1443,0.1466,0.1498,0.1513,0.1574,0.1585,0.1597,0.1646,0.1653,0.1703,0.1711,0.172,0.1779,0.1785,0.1822,0.1773,0.1881,0.1884,0.1887,0.1934,0.1941,0.1948,0,0,0,0,0,0.1428,0.1449,0.1466,0.1477,0.1537,0.1575,0.1585,0.1628,0.1647,0.1672,0.1711,0.1711,0.1803,0.1782,0.1789,0.1828,0.1879,0.1883,0.1887,0.1931,0.194,0.1948,0,0,0,0,0,0,0.1414,0.1459,0.1478,0.1514,0.1552,0.1587,0.1621,0.1644,0.1693,0.1711,0.173,0.1741,0.1804,0.1808,0.1784,0.1872,0.1842,0.1847,0.1873,0.1881,0.1888,0.1888,0.1775,0,0,0,0,0,0.142,0.1452,0.149,0.1524,0.1545,0.1588,0.1615,0.1644,0.1684,0.1709,0.1744,0.1782,0.1819,0.1844,0.1874,0.1919,0.1922,0.1949,0.1956,0.1962,0.1967,0.2001,0.2011,0.1901,0.1901,0.1901,0,0,0.1423,0.1455,0.1474,0.1525,0.156,0.1595,0.1608,0.166,0.1699,0.1709,0.1782,0.1811,0.1837,0.1893,0.1921,0.1904,0.1998,0.1966,0.1971,0.1973,0.2005,0.2016,0.2025,0.1903,0.1903,0.1902,0,0,0.1437,0.1478,0.1505,0.1541,0.16,0.1624,0.1645,0.1698,0.1738,0.1798,0.1821,0.1871,0.1926,0.1954,0.1972,0.2034,0.2034,0.205,0.2086,0.2119,0.2128,0.2136,0.2161,0.2171,0.2053,0.2053,0.2053,0,0.1443,0.1483,0.152,0.1557,0.1594,0.1639,0.1677,0.1718,0.1786,0.182,0.1831,0.1928,0.1953,0.2016,0.2045,0.205,0.2067,0.2051,0.2128,0.2136,0.2143,0.2167,0.2177,0.2055,0.2055,0.2055,0.2055,0,0.1468,0.1514,0.1538,0.1598,0.1639,0.1684,0.1738,0.179,0.1839,0.1877,0.1961,0.1998,0.2054,0.2074,0.2082,0.2153,0.2148,0.2132,0.2103,0.2157,0.2179,0.2188,0.206,0.2059,0.2058,0.2057,0,0,0.1444,0.1537,0.1549,0.1587,0.1669,0.1701,0.1773,0.1842,0.1894,0.1962,0.2029,0.2098,0.2125,0.2147,0.2168,0.2201,0.2272,0.2197,0.2197,0.2217,0.235,0.222,0.2218,0.2274,0.2275,0.2277,0.2346,0,0.1457,0.1524,0.1572,0.1645,0.1683,0.1753,0.1812,0.1884,0.1948,0.2024,0.2078,0.2151,0.2151,0.2192,0.2226,0.2267,0.2299,0.2254,0.2299,0.2301,0.2174,0.2225,0.2283,0.2353,0.2355,0.2357,0.2358,0,0.1462,0.151,0.1577,0.1674,0.17,0.1752,0.1857,0.1919,0.2024,0.2079,0.2154,0.2199,0.2282,0.2264,0.2352,0.2328,0.2348,0.2364,0.2366,0.2232,0.2188,0.2288,0.2375,0.2374,0.2372,0.2371,0.237,0,0.1414,0.1513,0.1569,0.1604,0.1714,0.1768,0.1834,0.1938,0.2001,0.2123,0.2182,0.2268,0.2334,0.2372,0.242,0.2399,0.25,0.2467,0.2364,0.2355,0.2429,0.2419,0.2517,0.2517,0.2517,0.2517,0.2517,0,0.1395,0.1445,0.1558,0.1588,0.1665,0.1753,0.1842,0.1922,0.2037,0.2109,0.2212,0.2271,0.2368,0.2433,0.245,0.2441,0.2526,0.2379,0.2366,0.2449,0.2441,0.2436,0.2425,0.252,0.2519,0.2518,0.2518,0,0.1332,0.1407,0.1477,0.16,0.1644,0.1701,0.1842,0.1899,0.2025,0.2123,0.217,0.2304,0.2388,0.2462,0.2536,0.2471,0.2479,0.2452,0.2554,0.2545,0.2303,0.2295,0.2331,0.2327,0.2324,0.2321,0.2319,0,0.1303,0.1333,0.1468,0.1511,0.1574,0.1672,0.1737,0.1877,0.1939,0.2117,0.2153,0.2288,0.2361,0.2362,0.2444,0.2469,0.244,0.2422,0.234,0.2301,0.2286,0.2283,0.2279,0.2314,0.2313,0.2312,0.2311,0,0.1243,0.1303,0.136,0.1446,0.1525,0.1601,0.1708,0.1736,0.1894,0.2027,0.2087,0.2132,0.2225,0.2274,0.2322,0.2328,0.2418,0.2386,0.2392,0.2314,0.228,0.2267,0.2268,0.2299,0.2301,0.2302,0.2303,0,0.12,0.1221,0.1301,0.1369,0.1457,0.1501,0.157,0.1646,0.1722,0.1915,0.1926,0.2071,0.2198,0.2202,0.2241,0.2249,0.2206,0.2118,0.2137,0.2151,0.206,0.1988,0.1912,0,0,0,0,0,0.1146,0.1162,0.1217,0.1282,0.1362,0.1417,0.1538,0.1608,0.1755,0.1754,0.1835,0.191,0.1968,0.2038,0.2011,0.2164,0.2216,0.2122,0.2125,0.2234,0.2248,0.2158,0,0,0,0,0,0,0.1108,0.1155,0.118,0.1193,0.122,0.1298,0.1369,0.1472,0.1479,0.1632,0.1677,0.1795,0.1885,0.1968,0.1975,0.1998,0.1961,0.2216,0.2211,0.2227,0.2239,0.225,0.2162,0,0,0,0,0]},{"header":{"parameterUnit":"m.s-1","parameterCategory":2,"la1":30.2991,"la2":30.254,"lo1":-89.0895,"lo2":-89.0444,"dy":0.0017,"dx":0.0017,"nx":28,"ny":28,"refTime":"2024-02-19T09:00:00:Z","depth":"4","parameterNumber":3,"parameterNumberName":"V-component_of_CURRENTS"},"data":[0,0,0,0,0,0,0,0,0,0,0,0,0,0,0,0,0,0,0,0,0,0,0,0,0,0,0,0,0,0,0,0,0,0,0,0,0,0,0,0,0,0,0,0,0,0,0,0,0,0,0,0,0,0,0,0,0,0,0.0016,0.0016,0,-0.0039,-0.0039,-0.004,-0.0082,-0.0083,-0.0083,-0.0083,-0.0143,-0.0144,-0.0145,0,0,0,0,0,0,0,0,0,0,0,0,0,0.0057,0.0057,0.0016,0.0016,0.0015,-0.0039,-0.0039,-0.004,-0.0082,-0.0083,-0.0083,-0.0084,-0.0142,-0.0144,-0.0145,0,0,0,0,0,0,0,0,0,0,0,0,0,0.0024,0.0056,0.0017,-0.0012,-0.0015,-0.0038,-0.0039,-0.004,-0.0082,-0.0083,-0.0083,-0.0084,-0.0142,-0.0143,-0.0145,-0.0146,0,0,-0.0151,-0.0152,0,0,0,0,0,0,0,0,0.0026,0.0022,-0.0007,-0.001,-0.0014,-0.0054,-0.0047,-0.0076,-0.0082,-0.0057,-0.0083,-0.0084,-0.0112,-0.0117,-0.0127,-0.0149,-0.0152,-0.0151,-0.0152,-0.0153,-0.0154,0,0,0,0,0,0,0,0.0028,0.0024,-0.0006,-0.0008,-0.0012,-0.0032,-0.0037,-0.0053,-0.0082,-0.006,-0.0063,-0.0068,-0.0114,-0.0125,-0.0128,-0.0152,-0.0151,-0.0153,-0.0154,-0.0155,-0.019,-0.019,0,0,0,0,0,0,0.0038,0.0027,-0.0004,-0.0008,0.0006,-0.0032,-0.0037,-0.0041,-0.0082,-0.0088,-0.0067,-0.0069,-0.0121,-0.0126,-0.0131,-0.0133,-0.0153,-0.0155,-0.0156,-0.019,-0.019,-0.019,0,0,0,0,0,0,0.0039,0.0036,-0.0002,0.0009,0.0002,-0.0032,-0.0035,-0.0042,-0.0054,-0.0087,-0.0094,-0.0073,-0.0122,-0.0128,-0.0144,-0.0135,-0.0156,-0.0157,-0.0191,-0.019,-0.019,-0.0138,0,0,0,0,0,0,0.0041,0.0037,0.0039,0.0009,0.0002,-0.0011,-0.0035,-0.0042,-0.0056,-0.0059,-0.0094,-0.01,-0.0123,-0.0141,-0.0146,-0.0138,-0.0159,-0.0191,-0.0191,-0.019,-0.014,-0.0136,-0.0132,0,0,0,0,0,0.0043,0.0049,0.004,0.0036,0.0006,-0.001,-0.0016,-0.0043,-0.0055,-0.0056,-0.0082,-0.0099,-0.0143,-0.0143,-0.0148,-0.0141,-0.0191,-0.0191,-0.019,-0.0141,-0.0137,-0.0132,0,0,0,0,0,0,0.0067,0.0044,0.0034,0.0032,0.0015,-0.0017,-0.002,-0.0038,-0.006,-0.0062,-0.0096,-0.0104,-0.0117,-0.0136,-0.0135,-0.0151,-0.017,-0.0171,-0.0131,-0.0127,-0.0123,-0.011,-0.016,0,0,0,0,0,0.0075,0.0075,0.0048,0.0049,0.0042,0.0012,0.0002,-0.0014,-0.0038,-0.0048,-0.0074,-0.0099,-0.0119,-0.0128,-0.015,-0.0155,-0.018,-0.0155,-0.0151,-0.0148,-0.0142,-0.0173,-0.0171,-0.0189,-0.0189,-0.0189,0,0,0.0085,0.0073,0.0072,0.0054,0.0038,0.0037,0.0005,-0.0004,-0.0006,-0.005,-0.0059,-0.0088,-0.0119,-0.0128,-0.0135,-0.0142,-0.0157,-0.0147,-0.0144,-0.014,-0.0172,-0.017,-0.0169,-0.0189,-0.0189,-0.0189,0,0,0.0109,0.0095,0.0104,0.0092,0.0075,0.0058,0.0058,0.0029,0.0014,0.0001,-0.0031,-0.0053,-0.0083,-0.0103,-0.0117,-0.0105,-0.0139,-0.0112,-0.008,-0.0109,-0.0108,-0.0107,-0.0138,-0.0141,-0.0107,-0.0107,-0.0107,0,0.0123,0.0129,0.0104,0.011,0.0107,0.0072,0.0083,0.0064,0.0033,0.0026,0.0005,-0.0042,-0.0071,-0.0081,-0.008,-0.0096,-0.0119,-0.0092,-0.0104,-0.0103,-0.0103,-0.0136,-0.0139,-0.0105,-0.0105,-0.0105,-0.0105,0,0.015,0.0157,0.0162,0.016,0.0154,0.0157,0.0132,0.0123,0.01,0.0078,0.0056,0.0012,-0.0016,-0.0029,-0.0051,-0.0061,-0.008,-0.0097,-0.0112,-0.0098,-0.0134,-0.0138,-0.0101,-0.0102,-0.0103,-0.0103,0,0,0.0178,0.0182,0.0184,0.0197,0.0181,0.0183,0.0182,0.0172,0.0174,0.0133,0.013,0.0085,0.0055,0.0037,0.0002,-0.0024,-0.0049,-0.0055,-0.0057,-0.008,-0.0115,-0.012,-0.0126,-0.0066,-0.0067,-0.0067,-0.014,0,0.021,0.0238,0.0229,0.0259,0.0272,0.0247,0.0252,0.0237,0.0212,0.0199,0.0148,0.013,0.0082,0.0071,0.0036,-0.0027,-0.0057,-0.0027,-0.013,-0.0133,-0.0134,-0.013,-0.0068,-0.0144,-0.0145,-0.0146,-0.0146,0,0.0239,0.0257,0.0292,0.0315,0.0318,0.0329,0.0333,0.0333,0.0303,0.0281,0.0246,0.0204,0.0159,0.0117,0.0015,0.0036,-0.0033,-0.0086,-0.009,-0.0115,-0.0145,-0.0162,-0.0154,-0.0154,-0.0153,-0.0153,-0.0152,0,0.0273,0.0303,0.0336,0.0341,0.0356,0.0369,0.0376,0.0359,0.037,0.0335,0.0333,0.0263,0.0235,0.014,0.0025,0.002,-0.009,-0.0113,-0.0184,-0.0186,-0.0183,-0.0183,-0.0184,-0.0184,-0.0183,-0.0183,-0.0183,0,0.0307,0.0335,0.0357,0.0375,0.042,0.0413,0.0448,0.0439,0.0438,0.0458,0.0381,0.0373,0.024,0.0159,0.0046,-0.008,-0.0079,-0.0177,-0.0203,-0.016,-0.0157,-0.0186,-0.0186,-0.0186,-0.0185,-0.0185,-0.0184,0,0.0334,0.0347,0.0391,0.0422,0.0437,0.0468,0.0507,0.0532,0.0518,0.0541,0.0537,0.046,0.0348,0.0209,0.0053,-0.0044,-0.0169,-0.0215,-0.0156,-0.0178,-0.0252,-0.0248,-0.0301,-0.0302,-0.0303,-0.0303,-0.0304,0,0.0348,0.0375,0.0429,0.0462,0.0478,0.0523,0.0557,0.057,0.0598,0.0592,0.0609,0.0519,0.0445,0.0228,0.0066,-0.0149,-0.0183,-0.0251,-0.0257,-0.0243,-0.0263,-0.0258,-0.0253,-0.0305,-0.0305,-0.0305,-0.0305,0,0.0379,0.0399,0.0435,0.0504,0.0552,0.0607,0.0656,0.0686,0.0702,0.0697,0.0673,0.0557,0.0429,0.0242,0.0076,-0.0081,-0.0209,-0.0258,-0.0259,-0.0264,-0.0248,-0.0266,-0.0261,-0.0307,-0.0307,-0.0307,-0.0307,0,0.04,0.0431,0.0481,0.0542,0.0609,0.0671,0.0693,0.0727,0.0755,0.075,0.074,0.0594,0.0512,0.0277,0.0123,-0.0032,-0.0079,-0.0134,-0.0141,-0.0141,-0.0079,-0.0033,-0.0044,0,0,0,0,0,0.0417,0.0453,0.0515,0.0582,0.0652,0.0692,0.0753,0.0768,0.0787,0.0786,0.0768,0.0649,0.0419,0.0315,0.0161,0.0091,-0.0119,-0.0097,-0.0188,-0.0319,-0.0317,-0.0272,0,0,0,0,0,0,0.0427,0.0484,0.0515,0.0607,0.0659,0.0739,0.078,0.0794,0.0789,0.0784,0.0668,0.0608,0.0384,0.0515,0.016,0.0111,0.003,-0.0205,-0.0209,-0.032,-0.0318,-0.0316,-0.0269,0,0,0,0,0]}]]